SP8AQK-13 Weather Reports


time (UTC)temp
C
wind
direction
speed
KPH
gust
KPH
rain 1hr
cm
rain 24hr
cm
rain mn
cm
humidity
%
barometer
mb
20260506220309 14 0.0 0.0 0.00 0.00 0.00 77 1010.0
20260506214309 15 0.0 0.0 0.00 0.00 0.00 70 1009.7
20260506212308 16 0.0 0.0 0.00 0.00 0.00 67 1009.7
20260506210307 16 0.0 0.0 0.00 0.00 0.00 62 1009.7
20260506204306 17 0.0 0.0 0.00 0.00 0.00 60 1009.5
20260506202306 17 0.0 0.0 0.00 0.00 0.00 60 1009.3
20260506200305 17 0.0 0.0 0.00 0.00 0.00 59 1009.3
20260506194304 18 0.0 0.0 0.00 0.00 0.00 56 1009.3
20260506192305 18 0.0 0.0 0.00 0.00 0.00 54 1009.2
20260506190303 19 0.0 0.0 0.00 0.00 0.00 51 1009.1
20260506184302 20 0.0 0.0 0.00 0.00 0.00 50 1009.0
20260506182301 20 0.0 0.0 0.00 0.00 0.00 49 1008.9
20260506180301 21 0.0 0.0 0.00 0.00 0.00 48 1008.5
20260506174300 21 0.0 0.0 0.00 0.00 0.00 46 1008.4
20260506172259 22 0.0 0.0 0.00 0.00 0.00 46 1008.3
20260506170258 22 0.0 0.0 0.00 0.00 0.00 44 1008.1
20260506164258 23 0.0 0.0 0.00 0.00 0.00 42 1008.0
20260506162257 23 0.0 0.0 0.00 0.00 0.00 41 1008.1
20260506160256 23 0.0 0.0 0.00 0.00 0.00 39 1008.0
20260506154255 24 0.0 0.0 0.00 0.00 0.00 39 1008.3
20260506152255 24 0.0 0.0 0.00 0.00 0.00 38 1008.2
20260506150302 25 0.0 0.0 0.00 0.00 0.00 38 1008.2
20260506144253 25 0.0 0.0 0.00 0.00 0.00 38 1008.1
20260506142252 25 0.0 0.0 0.00 0.00 0.00 38 1008.2
20260506140252 26 0.0 0.0 0.00 0.00 0.00 37 1008.0
20260506134251 26 0.0 0.0 0.00 0.00 0.00 37 1008.1
20260506132250 26 0.0 0.0 0.00 0.00 0.00 38 1008.3
20260506124249 26 0.0 0.0 0.00 0.00 0.00 37 1008.3
20260506122248 26 0.0 0.0 0.00 0.00 0.00 37 1008.5
20260506120247 26 0.0 0.0 0.00 0.00 0.00 37 1008.5
20260506114247 26 0.0 0.0 0.00 0.00 0.00 38 1008.6
20260506112246 26 0.0 0.0 0.00 0.00 0.00 36 1008.6
20260506110245 26 0.0 0.0 0.00 0.00 0.00 37 1008.6
20260506104244 25 0.0 0.0 0.00 0.00 0.00 36 1008.7
20260506102243 25 0.0 0.0 0.00 0.00 0.00 36 1008.7
20260506094242 23 0.0 0.0 0.00 0.00 0.00 38 1008.8
20260506090241 23 0.0 0.0 0.00 0.00 0.00 40 1008.6
20260506084240 22 0.0 0.0 0.00 0.00 0.00 41 1008.7
20260506082239 22 0.0 0.0 0.00 0.00 0.00 42 1008.6
20260506080238 22 0.0 0.0 0.00 0.00 0.00 42 1008.5
20260506072237 21 0.0 0.0 0.00 0.00 0.00 43 1008.7
20260506070236 21 0.0 0.0 0.00 0.00 0.00 45 1008.5
20260506062235 22 0.0 0.0 0.00 0.00 0.00 42 1008.4
20260506060234 21 0.0 0.0 0.00 0.00 0.00 42 1008.7
20260506050232 17 0.0 0.0 0.00 0.00 0.00 49 1009.3
20260506044231 15 0.0 0.0 0.00 0.00 0.00 52 1009.5
20260506042230 15 0.0 0.0 0.00 0.00 0.00 53 1009.7
20260506040230 13 0.0 0.0 0.00 0.00 0.00 52 1010.0
20260506034229 13 0.0 0.0 0.00 0.00 0.00 51 1009.7
20260506032228 13 0.0 0.0 0.00 0.00 0.00 50 1009.8
20260506030228 13 0.0 0.0 0.00 0.00 0.00 52 1010.1
20260506024227 12 0.0 0.0 0.00 0.00 0.00 52 1010.0
20260506022226 11 0.0 0.0 0.00 0.00 0.00 58 1010.2
20260506020225 11 0.0 0.0 0.00 0.00 0.00 61 1010.3
20260506014225 11 0.0 0.0 0.00 0.00 0.00 59 1010.2
20260506012224 11 0.0 0.0 0.00 0.00 0.00 59 1010.2
20260506010223 11 0.0 0.0 0.00 0.00 0.00 62 1010.3
20260506004222 12 0.0 0.0 0.00 0.00 0.00 56 1010.2